www.pogodaiklimat.ru

Погода и климат >> Архив погоды >> Норвегия >> Сволваер аэропорт


ПОГОДА в Сволваер аэропорту

  • Прогноз погоды в Сволваер аэропорту
  • Монитор погоды в Сволваер аэропорту

АРХИВ ПОГОДЫ в Сволваер аэропорту

Время (UTC), дата Ветер
(напр.,м/с)
 
Видим.   Явления Облачность Т
(С)
Тd
(С)
f
(%)
Тe
(С)
Тes
(С)
Комфортность P
(гПа)
Po
(гПа)
Тmin
(С)
Tmax
(С)
R
(мм)
R24
(мм)
S
(см)
01 19.04 ЮЗ 1
{2}
н/о н/о +4.0 +3.3 95 +2 +2 1031.2 1030.1
02 19.04 Ю 2
{4}
н/о н/о +4.0 +3.3 95 +1 +1 1031.0 1029.9
03 19.04 С 2
{4}
н/о н/о +4.0 +3.3 95 +1 +1 1030.7 1029.6
04 19.04 С 1
{3}
н/о н/о +3.7 +3.1 96 +2 +2 1030.4 1029.3
05 19.04 Ю 3
{4}
н/о н/о +4.7 +4.1 96 +1 +1 1030.5 1029.4
06 19.04 ЮЗ 4
{6}
н/о н/о +5.0 +4.6 97 +1 +1 1030.7 1029.5 +3.3 +5.0
07 19.04 Ю 4
{6}
н/о н/о +4.7 +4.3 97 0 0 1030.6 1029.4
08 19.04 Ю 5
{6}
н/о н/о +4.9 +4.6 98 -0 -0 1030.6 1029.5
09 19.04 Ю 4
{6}
н/о н/о +5.1 +4.8 98 +1 +1 1030.7 1029.6
10 19.04 ЮЗ 5
{7}
н/о н/о +5.5 +5.2 98 +1 +1 1030.7 1029.6
11 19.04 ЮЗ 5
{7}
н/о н/о +5.5 +5.1 97 +1 +1 1030.5 1029.3
12 19.04 ЮЗ 6
{9}
н/о н/о +5.6 +5.2 97 0 0 1030.2 1029.1
13 19.04 ЮЗ 5
{8}
н/о н/о +5.7 +5.1 96 +1 +1 1030.2 1029.1
14 19.04 Ю 5
{7}
н/о н/о +5.4 +4.7 95 +1 +1 1030.3 1029.1
15 19.04 Ю 5
{7}
н/о н/о +5.5 +4.8 95 +1 +1 1030.3 1029.2
16 19.04 Ю 5
{6}
н/о н/о +5.2 +4.5 95 0 0 1030.2 1029.1
17 19.04 ЮЗ 6
{8}
н/о н/о +5.7 +4.8 94 +1 +1 1029.9 1028.8
18 19.04 ЮЗ 5
{8}
н/о н/о +5.4 +4.7 95 +1 +1 1029.8 1028.6 +4.7 +5.7
19 19.04 ЮЗ 5
{7}
н/о н/о +5.7 +5.0 95 +1 +1 1029.9 1028.8
20 19.04 ЮЗ 5
{8}
н/о н/о +5.5 +4.8 95 +1 +1 1030.0 1028.9
21 19.04 ЮЗ 5
{7}
н/о н/о +5.5 +4.8 95 +1 +1 1030.0 1028.9
22 19.04 Ю 6
{7}
н/о н/о +5.4 +4.8 96 0 0 1029.9 1028.8
23 19.04 Ю 4
{6}
н/о н/о +5.0 +4.4 96 +1 +1 1029.8 1028.7
00 20.04 Ю 3
{8}
н/о н/о +5.1 +4.4 95 +1 +1 1029.7 1028.6
01 20.04 Ю 3
{4}
н/о н/о +5.1 +4.2 94 +1 +1 1029.3 1028.2
02 20.04 Ю 3
{4}
н/о н/о +5.1 +4.2 94 +1 +1 1029.0 1027.9
03 20.04 ЮЗ 5
{7}
н/о н/о +5.6 +4.3 91 +1 +1 1028.6 1027.5
04 20.04 ЮЗ 4
{6}
н/о н/о +5.5 +4.2 91 +1 +1 1028.5 1027.4
05 20.04 ЮЗ 2
{4}
н/о н/о +5.9 +4.1 88 +3 +3 1028.3 1027.2
06 20.04 ЮЗ 3
{7}
н/о н/о +7.0 +4.0 81 +4 +4 1027.9 1026.8 +4.9 +7.2
07 20.04 ЮЗ 3
{6}
н/о н/о +7.5 +4.3 80 +5 +5 1027.4 1026.3
08 20.04 ЮЗ 7
{9}
н/о н/о +8.8 +3.2 68 +5 +5 1026.5 1025.4
09 20.04 ЮЗ 4
{9}
н/о н/о +8.9 +3.5 69 +6 +6 1026.3 1025.2
10 20.04 ЮЗ 5
{9}
н/о н/о +9.5 +3.3 65 +6 +6 1025.3 1024.2
11 20.04 ЮЗ 5
{8}
н/о н/о +10.5 +3.6 62 +8 +8 1024.2 1023.1
12 20.04 ЮЗ 6
{9}
н/о н/о +11.2 +2.5 55 +8 +8 1022.8 1021.7
13 20.04 ЮЗ 6
{9}
н/о н/о +10.7 +1.5 53 +8 +8 1021.5 1020.4
14 20.04 ЮЗ 8
{13}
н/о н/о +9.2 +2.1 61 +5 +5 1020.4 1019.4
15 20.04 ЮЗ 11
{14}
н/о н/о +9.1 +2.2 62 +4 +4 1019.7 1018.6
16 20.04 ЮЗ 8
{18}
н/о н/о +8.8 +2.6 65 +5 +5 1018.6 1017.5
17 20.04 ЮЗ 7
{10}
н/о н/о +7.1 +3.9 80 +2 +2 1018.2 1017.1
18 20.04 ЮЗ 8
{18}
н/о н/о +5.7 +4.8 94 -0 -0 1017.2 1016.1 +5.7 +12.1
19 20.04 Ю 14
{17}
н/о н/о +5.7 +5.1 96 -2 -2 1015.8 1014.7
20 20.04 Ю 13
{16}
н/о н/о +5.5 +5.1 97 -2 -2 1015.4 1014.3
21 20.04 Ю 11
{15}
н/о н/о +5.4 +5.0 97 -1 -1 1015.6 1014.5
22 20.04 ЮЗ 6
{14}
н/о н/о +5.5 +5.1 97 0 0 1015.5 1014.4
23 20.04 ЮЗ 6
{9}
н/о н/о +5.4 +5.0 97 0 0 1014.8 1013.7
00 21.04 ЮЗ 11
{17}
н/о н/о +5.5 +5.1 97 -1 -1 1013.4 1012.3
01 21.04 ЮЗ 13
{14}
н/о н/о +5.5 +5.1 97 -2 -2 1012.5 1011.4
02 21.04 ЮЗ 7
{15}
н/о н/о +5.6 +5.0 96 0 0 1012.3 1011.2
03 21.04 ЮЗ 9
{13}
н/о н/о +5.5 +4.6 94 -1 -1 1011.8 1010.7
04 21.04 ЮЗ 8
{12}
н/о н/о +5.4 +4.2 92 -1 -1 1011.8 1010.7
05 21.04 ЮЗ 7
{10}
н/о н/о +5.4 +4.2 92 -0 -0 1011.9 1010.8
06 21.04 ЮЗ 11
{15}
н/о н/о +5.4 +4.2 92 -1 -1 1011.0 1009.9 +6.0
07 21.04 ЮЗ 8
{16}
н/о н/о +5.4 +3.7 89 -0 -0 1011.2 1010.1
08 21.04 ЮЗ 8
{14}
н/о н/о +6.0 +2.7 79 +1 +1 1011.4 1010.3
09 21.04 ЮЗ 9
{12}
н/о н/о +6.4 +3.0 79 +1 +1 1011.0 1009.9
10 21.04 ЮЗ 9
{13}
н/о н/о +7.4 +3.7 77 +2 +2 1011.0 1009.9
11 21.04 ЮЗ 9
{13}
н/о н/о +5.9 +3.1 82 0 0 1011.2 1010.1
12 21.04 ЮЗ 7
{16}
н/о н/о +6.1 +3.8 85 +1 +1 1011.6 1010.5
13 21.04 ЮЗ 9
{13}
н/о н/о +6.1 +3.4 83 0 0 1011.3 1010.2
14 21.04 ЮЗ 8
{14}
н/о н/о +6.0 +3.3 83 +1 +1 1011.6 1010.5
15 21.04 ЮЗ 5
{12}
н/о н/о +5.5 +3.2 85 +1 +1 1012.4 1011.3
16 21.04 ЮЗ 8
{11}
н/о н/о +5.6 +3.0 83 0 0 1012.5 1011.4
17 21.04 ЮЗ 7
{10}
н/о н/о +5.2 +3.5 89 -0 -0 1013.0 1011.9
18 21.04 ЮЗ 6
{14}
н/о н/о +5.1 +3.6 90 -0 -0 1013.0 1011.9 +5.0 +7.9
19 21.04 ЮЗ 7
{11}
н/о н/о +5.2 +3.7 90 -0 -0 1013.3 1012.2
20 21.04 ЮЗ 5
{10}
н/о н/о +4.8 +3.6 92 -0 -0 1013.6 1012.5
21 21.04 ЮЗ 8
{13}
н/о н/о +5.1 +3.6 90 -1 -1 1013.8 1012.7
22 21.04 ЮЗ 8
{11}
н/о н/о +5.2 +3.5 89 -1 -1 1014.0 1012.9
23 21.04 ЮЗ 6
{10}
н/о н/о +5.0 +3.8 92 -0 -0 1014.3 1013.2
00 22.04 ЮЗ 6
{13}
н/о н/о +5.1 +3.9 92 -0 -0 1014.5 1013.4
01 22.04 ЮЗ 5
{8}
н/о н/о +5.0 +4.1 94 0 0 1014.7 1013.6
02 22.04 ЮЗ 6
{9}
н/о н/о +5.2 +3.7 90 0 0 1014.6 1013.5
03 22.04 ЮЗ 5
{7}
н/о н/о +4.8 +3.5 91 -0 -0 1014.8 1013.7
04 22.04 Ю 8
{9}
н/о н/о +5.0 +4.1 94 -1 -1 1014.7 1013.6
05 22.04 ЮЗ 6
{9}
н/о н/о +4.9 +4.2 95 -1 -1 1014.9 1013.8
06 22.04 ЮЗ 6
{9}
н/о н/о +5.1 +4.2 94 -0 -0 1015.2 1014.1 +4.7 +5.3
07 22.04 З 4
{6}
н/о н/о +6.0 +3.7 85 +2 +2 1015.2 1014.1
08 22.04 ЮЗ 3
{6}
н/о н/о +7.5 +3.2 74 +5 +5 1015.1 1014.0
09 22.04 Ю 1
{4}
н/о н/о +6.9 +2.0 71 +6 +6 1014.7 1013.6
10 22.04 В 5
{6}
н/о н/о +6.0 +2.3 77 +2 +2 1013.9 1012.8
11 22.04 В 6
{10}
н/о н/о +5.8 +2.6 80 +1 +1 1013.0 1011.9
12 22.04 ЮВ 5
{10}
н/о н/о +6.0 +2.8 80 +2 +2 1012.4 1011.3
13 22.04 ЮЗ 2
{9}
н/о н/о +6.0 +4.2 88 +4 +4 1012.1 1011.0
14 22.04 Ю 8
{10}
н/о н/о +6.7 +5.8 94 +1 +1 1011.7 1010.7
15 22.04 ЮЗ 4
{11}
н/о н/о +6.0 +5.4 96 +2 +2 1011.9 1010.8
16 22.04 Ю 6
{9}
н/о н/о +6.5 +5.1 91 +2 +2 1011.7 1010.6
17 22.04 ЮЗ 6
{9}
н/о н/о +6.7 +4.7 87 +2 +2 1011.5 1010.4
18 22.04 ЮЗ 7
{11}
н/о н/о +6.5 +4.5 87 +1 +1 1011.5 1010.4 +5.1 +7.5
19 22.04 ЮЗ 8
{10}
н/о н/о +6.5 +4.3 86 +1 +1 1011.6 1010.5
20 22.04 ЮЗ 6
{10}
н/о н/о +6.6 +4.1 84 +2 +2 1012.3 1011.2
21 22.04 ЮЗ 6
{8}
н/о н/о +6.5 +4.2 85 +2 +2 1012.6 1011.5
22 22.04 ЮЗ 7
{10}
н/о н/о +6.6 +4.4 86 +2 +2 1012.7 1011.6
23 22.04 ЮЗ 9
{12}
н/о н/о +6.7 +4.4 85 +1 +1 1012.3 1011.2
00 23.04 ЮЗ 8
{12}
н/о н/о +6.2 +4.0 86 +1 +1 1013.1 1012.1
01 23.04 ЮЗ 7
{11}
н/о н/о +6.7 +3.9 82 +2 +2 1013.7 1012.6
02 23.04 ЮЗ 5
{10}
н/о н/о +6.3 +3.8 84 +2 +2 1014.2 1013.1
03 23.04 ЮЗ 7
{9}
н/о н/о +6.6 +4.1 84 +2 +2 1014.3 1013.2
04 23.04 ЮЗ 6
{9}
н/о н/о +6.4 +4.1 85 +2 +2 1014.8 1013.7
05 23.04 ЮЗ 6
{10}
н/о н/о +6.7 +4.2 84 +2 +2 1015.0 1013.9
06 23.04 ЮЗ 5
{11}
н/о н/о +6.9 +4.2 83 +3 +3 1015.5 1014.4 +6.1 +7.0
07 23.04 Ю 2
{6}
н/о н/о +7.3 +4.4 82 +5 +5 1016.0 1014.9
08 23.04 Ю 4
{6}
н/о н/о +8.9 +4.9 76 +6 +6 1016.4 1015.4
09 23.04 ЮЗ 7
{10}
н/о н/о +8.1 +5.1 81 +4 +4 1016.4 1015.3
10 23.04 Ю 7
{9}
н/о н/о +6.8 +4.8 87 +2 +2 1017.5 1016.4
11 23.04 Ю 6
{7}
н/о н/о +8.8 +5.4 79 +5 +5 1017.8 1016.8
12 23.04 Ю 4
{10}
н/о н/о +9.5 +5.3 75 +7 +7 1018.5 1017.4
13 23.04 Ю 4
{7}
н/о н/о +8.9 +4.9 76 +6 +6 1018.8 1017.7
14 23.04 ЮЗ 3
{5}
н/о н/о +8.4 +5.0 79 +6 +6 1018.9 1017.8
15 23.04 Ю 3
{5}
н/о н/о +7.5 +4.6 82 +5 +5 1019.1 1018.0
16 23.04 Ю 5
{6}
н/о н/о +6.9 +4.6 85 +3 +3 1019.3 1018.2
17 23.04 Ю 5
{6}
н/о н/о +6.3 +4.5 88 +2 +2 1019.6 1018.5
18 23.04 ЮЗ 3
{7}
н/о н/о +6.1 +4.6 90 +3 +3 1020.0 1018.9 +6.0 +9.6
19 23.04 Ю 3
{4}
н/о н/о +5.5 +4.3 92 +2 +2 1020.4 1019.3
20 23.04 ЮЗ 2
{3}
н/о н/о +5.9 +4.6 91 +3 +3 1020.9 1019.8
21 23.04 ЮВ 1
{3}
н/о н/о +5.7 +4.4 91 +4 +4 1021.2 1020.1
22 23.04 штиль 0
{1}
н/о н/о +5.5 +4.3 92 +4 +4 1021.4 1020.3
23 23.04 штиль 0
{2}
н/о н/о +5.3 +4.4 94 +4 +4 1021.6 1020.5
00 24.04 С 2
{4}
н/о н/о +4.9 +4.2 95 +2 +2 1021.7 1020.6
01 24.04 СЗ 3
{4}
н/о н/о +4.2 +3.8 97 0 0 1021.8 1020.7
02 24.04 С 1
{3}
н/о н/о +3.5 +3.2 98 +2 +2 1022.3 1021.2
03 24.04 С 2
{3}
н/о н/о +2.6 +2.3 98 -1 -1 1022.6 1021.5
04 24.04 С 2
{3}
н/о н/о +3.3 +2.9 97 0 0 1022.6 1021.5
05 24.04 С 2
{2}
н/о н/о +4.2 +3.8 97 +1 +1 1022.8 1021.7
06 24.04 С 3
{4}
н/о н/о +6.6 +5.4 92 +3 +3 1022.7 1021.6 +2.3 +7.1
07 24.04 СВ 2
{4}
н/о н/о +7.6 +5.1 84 +6 +6 1022.9 1021.8
08 24.04 СВ 2
{4}
н/о н/о +8.9 +5.3 78 +7 +7 1023.2 1022.1
09 24.04 В 2
{3}
н/о н/о +10.3 +5.7 73 +9 +9 1023.2 1022.1
10 24.04 В 3
{4}
н/о н/о +10.9 +5.7 70 +9 +9 1023.3 1022.2
11 24.04 В 3
{4}
н/о н/о +11.4 +4.9 64 +10 +10 1023.2 1022.2
12 24.04 В 3
{4}
н/о н/о +12.7 +3.9 55 +12 +12 1023.2 1022.1
13 24.04 В 4
{4}
н/о н/о +13.5 +3.6 51 +12 +12 1023.1 1022.0
14 24.04 В 3
{4}
н/о н/о +13.7 +3.5 50 +13 +13 1023.0 1021.9
15 24.04 В 3
{4}
н/о н/о +12.6 +3.8 55 +11 +11 1022.9 1021.8
16 24.04
{5}
н/о н/о +14.5 +2.7 45 1022.7 1021.6
17 24.04 С 4
{6}
н/о н/о +13.2 +2.5 48 +12 +12 1022.7 1021.6
18 24.04 С 3
{6}
н/о н/о +11.0 +2.1 54 +9 +9 1022.7 1021.6 +6.6 +14.5
19 24.04 С 4
{6}
н/о н/о +9.9 +2.1 58 +8 +8 1022.9 1021.8
20 24.04 С 4
{6}
н/о н/о +9.6 +2.0 59 +7 +7 1023.0 1021.9
21 24.04 С 3
{5}
н/о н/о +8.8 +1.7 61 +7 +7 1023.2 1022.1
22 24.04 СВ 3
{5}
н/о н/о +7.5 +2.8 72 +5 +5 1023.1 1022.0
23 24.04 С 2
{5}
н/о н/о +7.9 +1.3 63 +6 +6 1023.0 1021.9
00 25.04 С 3
{6}
н/о н/о +8.0 +1.2 62 +6 +6 1022.9 1021.8
01 25.04 С 3
{4}
н/о н/о +7.3 +1.4 66 +5 +5 1022.8 1021.7
02 25.04 С 3
{4}
н/о н/о +7.2 +0.9 64 +5 +5 1022.7 1021.6
03 25.04 С 2
{4}
н/о н/о +7.5 +0.7 62 +6 +6 1022.5 1021.4
04 25.04 СВ 3
{4}
н/о н/о +8.5 +0.5 57 +6 +6 1022.3 1021.2
05 25.04 С 3
{5}
н/о н/о +9.7 +0.6 53 +8 +8 1022.3 1021.2
06 25.04 С 2
{6}
н/о н/о +10.8 +0.6 49 +10 +10 1022.4 1021.3 +6.1 +11.3
07 25.04 СВ 3
{7}
н/о н/о +12.6 +1.3 46 +12 +12 1022.3 1021.2
08 25.04 В 4
{6}
н/о н/о +12.5 +1.5 47 +11 +11 1022.3 1021.2
09 25.04 В 4
{6}
н/о н/о +13.2 +1.3 44 +12 +12 1022.2 1021.2
10 25.04 В 3
{6}
н/о н/о +13.9 +1.2 42 +13 +13 1022.4 1021.3
11 25.04 В 3
{5}
н/о н/о +14.1 +1.4 42 +13 +13 1022.2 1021.2
12 25.04 В 4
{7}
н/о н/о +14.1 +1.4 42 +13 +13 1022.1 1021.1
13 25.04 В 4
{5}
н/о н/о +14.4 +1.7 42 +13 +13 1022.0 1020.9
14 25.04 В 3
{5}
н/о н/о +15.0 +0.8 38 +15 +15 1022.1 1021.0
15 25.04 В 4
{5}
н/о н/о +14.5 +1.4 41 +13 +13 1022.0 1020.9
16 25.04 В 3
{5}
н/о н/о +14.1 +1.4 42 +13 +13 1021.7 1020.6
17 25.04 В 3
{5}
н/о н/о +12.4 +2.0 49 +11 +11 1021.4 1020.3
18 25.04 В 4
{5}
н/о н/о +12.7 +1.1 45 +11 +11 1021.2 1020.1 +10.3 +15.1
19 25.04 В 2
{4}
н/о н/о +11.1 +1.4 51 +10 +10 1021.4 1020.3
20 25.04 В 3
{6}
н/о н/о +10.6 +1.2 52 +9 +9 1021.6 1020.5
21 25.04 В 4
{5}
н/о н/о +11.1 +0.5 48 +9 +9 1021.6 1020.5
22 25.04 В 4
{6}
н/о н/о +10.5 +0.6 50 +8 +8 1021.6 1020.5
23 25.04 В 5
{6}
н/о н/о +10.1 +1.0 53 +7 +7 1021.5 1020.4
00 26.04 В 5
{6}
н/о н/о +9.7 +1.1 55 +7 +7 1021.3 1020.2
01 26.04 СВ 4
{6}
н/о н/о +8.4 +0.9 59 +6 +6 1021.1 1020.0

 

Местоположение метеостанции Сволваер аэропорт (Норвегия): широта 68.25 долгота 14.67 высота над уровнем моря 9 м.

В архиве по умолчанию представлена погода в Сволваер аэропорту за последнюю неделю. Архивные данные за месяц целиком и за предыдущие месяцы, начиная с января 2011 года, Вы можете получить, выбрав интересующий диапазон дат из раскрывающегося списка и нажав кнопку "Ввод!".


*Определитесь, кто Вы:
робот инопланетянин человек

Внимание! Время в таблицах - всемирное. Для получения местного времени необходимо прибавить поправку, которая равна 1 ч.

Смотрите также архив погоды в соседних городах и на ближайших метеорологических станциях:

Погода на Маяке Skrova (Норвегия) (11 км)
Погода в Стокмаркнес аэропорту (Норвегия) (40 км)
Погода в Бё (Норвегия) (41 км)
Погода в Лекнесе (Норвегия) (45 км)
Погода на Маяке Rotvaer (Норвегия) (54 км)
Погода в Сортланне (Норвегия) (59 км)
Погода в Драге (Норвегия) (62 км)
Погода в Аэропорту Харстад/Нарвик (Норвегия) (87 км)
Погода в Харстаде (Норвегия) (97 км)
Погода в Хеллигвере (Норвегия) (100 км)

Пояснения к столбцам:

Ветер - указаны скорость ветра в м/с - средняя за 10 мин, порывы в срок и между сроками (в фигурных скобках) и направление, откуда дует ветер: С - северный, СВ - северо-восточный, В - восточный, ЮВ - юго-восточный, Ю - южный, ЮЗ - юго-западный, З - западный, СЗ - северо-западный.
Видимость - горизонтальная дальность видимости в метрах или километрах. При видимости от 1 до 10 км при отсутствии осадков обычно наблюдается дымка, при ухудшении видимости до 1 км и менее - туман. В сухую погоду видимость может ухудшаться дымом, пылью или мглою.
Явления - указаны атмосферные явления, наблюдавшиеся в срок или в последний час перед сроком; фигурными скобками обозначены явления, наблюдавшиеся между сроками (за 1-3 часа до срока); квадратными скобками обозначены град или гололедные отложения с указанием их диаметра в мм.
Облачность - указаны через наклонную черту общая и нижняя облачность в баллах и высота нижней границы облаков в метрах; квадратными скобками обозначены формы облаков: Ci - перистые, Cs - перисто-слоистые, Cc - перисто-кучевые, Ac - высококучевые, As - высокослоистые, Sc - слоисто-кучевые, Ns - слоисто-дождевые, Cu - кучевые, Cb - кучево-дождевые. Подробнее классификацию облаков см. в Атласе облаков (PDF).
T - Температура воздуха - температура, измеренная на высоте 2 м над землей.
Td - Температура точки росы - температура, при понижении до которой содержащийся в воздухе водяной пар достигнет насыщения.
f - Относительная влажность воздуха - влажноcть воздуха, измеренная на высоте 2 м над землей.
Te - Эффективная температура - температура, которую ощущает одетый по сезону человек в тени. Характеристика душности погоды. При расчете учитывается влияние влажности воздуха и скорости ветра на теплоощущения человека.
Tes - Эффективная температура на солнце - температура, которую ощущает человек, с поправкой на солнечный нагрев. Характеристика знойности погоды. Зависит от высоты солнца над горизонтом, облачности и скорости ветра. Ночью, в пасмурную погоду, а также при ветре 12 м/с и более поправка равна нулю.
P - Атмосферное давление - приведенное к уровню моря атмосферное давление.
Po - Атмосферное давление - измеренное на уровне метеостанции атмосферное давление.
Tmin - Минимальная температура - минимум температуры воздуха на высоте 2 м над землей.
Tmax - Максимальная температура - максимум температуры воздуха на высоте 2 м над землей.
R - Количество осадков - Количество выпавших осадков за период времени, мм. При наведении курсора мыши на число - период времени, за который выпало указанное количество осадков.
R24 - Количество осадков - Количество выпавших осадков за 24 часа, мм.
S - Снежный покров - Высота снежного покрова, см. При наведении курсора мыши на число - состояние снежного покрова и степень покрытия местности в баллах.